Location: Winthrop
(48.4780°N, 120.1850°W)
Time: 15:58:36
(UTC-07:00)

Vanguard 3 - Pass Details

Date: 07 February 2023
Orbit: 508 x 3249 km, 33.3° (Epoch: 22 March)

Event Time Altitude Azimuth Distance (km) Brightness Sun altitude
Rises 21:04:53 0° 259° (WSW) 4,588 11.6 -38.8°
Reaches altitude 10° 21:07:47 10° 250° (WSW) 3,938 11.0 -39.3°
Enters shadow 21:17:08 36° 193° (SSW) 3,230 9.9 -40.7°
